GEFSMA_con_cape1000_150.txt.gz
Probability
97 97 97 97 97 97 97 94 100 90 87 74 52 61 58 61 45 39 42 84 81 77 71 58 58 52 55 55 55 48 35 29 39 42 39 32 26 19 26 19 19 19 19
100 100 97 100 97 97 97 97 100 97 94 84 71 71 68 68 71 52 32 74 84 81 74 65 65 58 48 42 42 39 35 32 32 39 45 35 32 26 23 23 19 10 13
100 100 100 97 94 97 97 97 87 97 94 84 77 74 74 71 74 65 55 48 61 81 74 68 68 68 52 42 39 35 39 48 42 42 48 42 39 32 23 19 19 19 13
97 100 100 97 97 100 97 97 94 97 94 94 90 77 81 84 65 71 71 58 55 29 71 77 74 74 65 45 32 42 45 42 35 45 39 48 45 35 23 23 19 19 19
100 100 100 100 97 100 94 81 94 87 90 90 84 84 81 81 77 68 68 68 65 71 45 68 90 77 61 58 58 42 48 48 39 32 35 39 35 26 29 26 19 19 16
97 100 100 100 97 100 100 97 94 100 97 94 52 48 77 81 81 68 58 68 74 68 48 35 48 61 84 74 71 65 55 52 45 45 32 32 32 32 23 26 16 13 13
100 100 97 97 94 100 97 94 90 90 90 94 87 74 74 71 81 84 71 65 61 65 61 52 39 35 35 81 77 81 71 65 48 39 42 35 26 32 29 19 19 6 6
94 84 97 100 97 97 94 90 94 90 77 87 90 65 45 42 65 42 65 65 58 65 58 48 55 61 45 29 16 68 68 65 61 52 45 45 42 39 32 23 16 10 10
87 94 97 90 94 87 94 94 97 94 77 81 84 71 45 32 39 58 61 58 58 48 45 39 48 65 52 42 39 19 65 58 45 45 48 39 39 39 32 23 16 13 10
87 84 90 84 77 77 84 87 87 94 87 81 74 81 74 68 42 35 45 35 45 55 39 26 39 55 52 39 39 10 39 45 48 48 45 48 39 35 26 23 16 13 13
81 77 84 81 84 81 84 84 77 81 84 77 74 77 68 74 65 39 10 23 32 39 42 39 42 29 32 42 32 23 10 29 32 45 42 39 26 29 19 13 10 13 13
74 77 84 81 77 81 77 77 81 81 90 87 87 81 77 74 55 39 29 23 16 35 32 39 32 32 29 29 26 23 10 6 6 16 29 32 29 23 23 10 6 6 10
71 81 68 74 74 77 81 84 84 81 84 71 84 74 74 65 58 52 35 16 19 39 32 29 26 29 19 23 16 16 6 3 3 3 6 10 10 13 13 10 10 10 10
68 68 74 74 71 74 61 68 77 77 71 65 55 65 65 45 52 52 32 29 13 13 23 23 26 26 16 19 6 3 3 3 0 0 0 0 0 3 3 3 6 3 0
61 71 65 74 77 77 68 74 68 68 65 58 58 55 58 48 48 42 35 26 16 3 6 16 10 19 19 16 6 3 13 0 0 0 0 0 0 0 0 0 0 0 0
58 55 52 58 52 55 65 71 68 68 55 52 52 52 52 45 42 35 29 23 19 10 10 10 10 10 19 0 3 10 3 0 0 0 0 0 0 0 0 0 0 0 0
61 61 58 55 48 52 55 55 55 48 35 32 32 35 39 39 29 26 23 23 16 16 10 10 10 10 10 10 3 10 6 0 0 0 0 0 0 0 0 0 0 0 0
61 61 52 52 48 45 48 45 42 35 35 39 32 29 26 16 19 26 16 13 16 19 13 10 16 16 16 16 10 10 3 3 3 0 0 0 0 0 0 0 0 0 0
58 55 52 52 45 45 45 45 39 32 32 32 29 23 23 23 23 19 19 16 13 13 13 13 13 10 3 10 10 6 0 3 3 0 0 0 0 0 0 0 0 0 0
55 48 45 42 39 35 32 26 35 32 26 23 19 26 23 13 13 16 10 10 16 13 13 13 6 10 6 6 6 3 3 3 3 0 0 0 0 0 0 0 0 0 0
32 35 35 39 32 23 16 19 26 26 23 19 19 16 13 6 6 6 3 3 6 6 6 6 3 0 0 0 3 3 3 0 3 0 0 0 0 0 0 0 0 0 0
35 35 35 29 23 13 3 6 19 13 16 19 13 13 13 10 6 0 0 0 0 3 3 3 3 0 0 0 0 3 0 0 0 0 0 0 0 0 0 0 0 0 0
35 29 26 23 19 16 3 3 0 3 16 13 13 13 10 6 0 6 0 0 0 0 0 3 3 3 0 0 0 0 0 0 0 0 0 0 0 0 0 0 0 0 0
26 29 26 23 23 10 3 0 0 0 6 13 16 16 13 10 10 3 0 0 0 0 0 0 0 3 0 0 3 0 0 0 3 3 0 0 0 0 0 0 0 0 0
29 29 26 26 26 10 3 0 0 3 6 6 10 3 3 3 3 0 0 3 0 0 0 0 0 0 0 0 0 0 0 0 0 0 0 0 0 0 0 0 0 0 0
23 26 16 26 16 10 3 3 0 0 3 6 6 3 3 3 3 0 0 3 3 0 0 0 0 0 0 0 0 0 0 0 0 0 0 0 0 0 0 0 0 0 0

GEFSMA_con_cape1000_156.txt.gz
Probability
23 26 23 29 26 16 6 6 3 3 0 3 3 0 3 3 0 10 26 84 84 81 68 58 55 52 58 61 52 48 42 42 48 39 39 29 29 29 29 23 26 23 13
19 19 19 23 26 16 13 6 3 3 0 3 3 3 3 6 6 6 13 58 84 84 77 65 61 58 48 52 45 39 39 32 35 45 45 48 42 35 29 26 19 23 16
16 13 13 13 16 10 10 6 6 0 0 0 3 3 3 3 0 0 3 13 52 81 81 74 68 58 55 48 45 45 39 39 48 45 42 45 35 39 32 29 29 16 10
13 10 13 10 10 10 10 6 6 6 0 0 0 3 3 3 3 0 0 0 3 26 68 74 68 65 55 48 52 52 45 45 48 52 42 32 32 32 23 23 26 16 6
13 13 10 10 6 6 3 3 6 3 0 0 0 3 3 3 3 0 0 0 0 0 3 48 71 68 55 48 45 55 52 42 48 52 42 39 32 26 23 19 19 10 0
13 10 10 10 10 6 6 0 0 0 0 0 3 3 3 0 3 0 0 0 0 0 0 0 35 48 65 61 61 58 52 42 45 48 29 32 35 32 23 13 13 3 6
13 10 16 10 6 6 3 3 0 0 0 0 0 0 0 0 0 0 0 0 0 0 0 0 3 6 16 58 55 74 58 58 55 52 45 42 45 42 16 10 10 3 6
16 13 13 13 13 13 6 6 0 0 0 0 0 0 0 0 0 0 0 0 0 0 3 3 0 0 0 0 6 48 55 52 55 52 52 52 42 29 23 16 13 6 6
23 23 19 13 13 13 6 3 0 0 0 0 0 0 0 0 0 0 0 0 0 0 0 6 0 0 0 0 0 10 42 52 45 45 48 42 39 26 13 13 16 13 6
26 19 13 10 13 10 6 6 0 0 0 0 0 0 0 0 0 0 0 0 0 0 0 3 6 3 0 0 0 0 16 39 42 39 42 39 39 29 23 16 13 10 6
16 19 13 10 10 10 3 6 3 0 0 0 0 0 0 0 0 0 0 0 0 0 0 0 0 0 0 0 0 3 6 13 23 26 32 35 35 39 23 10 6 6 6
19 23 23 6 6 3 3 3 3 0 0 0 0 0 0 0 0 0 0 0 0 0 0 0 0 0 0 3 3 3 3 3 3 6 13 16 23 26 16 13 13 13 6
26 16 16 10 6 0 3 3 0 0 0 0 0 0 0 0 0 0 0 0 0 0 0 0 0 0 0 0 3 3 3 3 0 0 3 6 6 10 13 10 10 10 10
19 13 6 6 3 10 13 6 0 0 0 0 0 0 0 0 0 0 0 0 0 0 0 0 0 0 0 0 0 0 3 3 0 0 0 0 0 3 6 6 6 3 3
6 6 10 10 3 10 10 10 3 0 0 0 0 0 0 0 0 0 0 0 0 0 0 0 0 0 0 0 0 0 0 3 0 0 0 0 0 0 0 0 0 0 0
10 13 13 19 13 13 10 6 3 0 0 0 0 0 0 0 0 0 0 0 0 0 0 0 0 0 0 0 0 0 0 0 0 0 0 0 0 0 0 0 0 0 0
19 19 13 13 16 13 16 6 10 10 3 3 0 0 0 0 0 0 0 0 0 0 0 0 0 0 0 0 0 0 0 0 0 0 0 0 0 0 0 0 0 0 0
19 19 16 16 13 10 6 6 3 3 3 0 0 0 0 0 0 0 0 0 0 0 0 0 0 0 0 0 0 0 0 0 0 0 0 0 0 0 0 0 0 0 0
16 13 10 10 10 6 3 6 3 0 0 0 0 0 0 0 0 0 0 0 0 0 0 0 0 0 0 0 0 0 0 0 0 0 0 0 0 0 0 0 0 0 0
10 6 10 10 10 6 3 3 0 0 0 0 0 0 0 0 0 0 0 0 0 0 0 0 0 0 0 0 0 0 0 0 0 0 0 0 0 0 0 0 0 0 0
19 10 6 3 3 3 3 3 3 0 0 0 0 0 0 0 0 0 0 0 0 0 0 0 0 0 0 0 0 0 0 0 0 0 0 0 0 0 0 0 0 0 0
16 13 13 10 3 6 3 0 0 0 0 0 0 0 0 0 0 0 0 0 0 0 0 0 0 0 0 0 0 0 0 0 0 0 0 0 0 0 0 0 0 0 0
10 10 3 0 3 0 0 0 0 0 0 0 0 0 0 0 0 0 0 0 0 0 0 0 0 0 0 0 0 0 0 0 0 0 0 0 0 0 0 0 0 0 0
10 0 0 0 0 0 0 0 0 0 0 0 0 0 0 0 0 0 0 0 0 0 0 0 0 0 0 0 0 0 0 0 0 0 0 0 0 0 0 0 0 0 0
6 0 0 0 0 0 0 0 0 0 0 0 0 0 0 0 0 0 0 0 0 0 0 0 0 0 0 0 0 0 0 0 0 0 0 0 0 0 0 0 0 0 0
3 0 0 0 0 0 0 0 0 0 0 0 0 0 0 0 0 0 0 0 0 0 0 0 0 0 0 0 0 0 0 0 0 0 0 0 0 0 0 0 0 0 0

GEFSMA_con_cape1000_162.txt.gz
Probability
13 19 16 13 19 10 10 6 6 0 0 3 10 6 10 13 6 10 26 61 84 81 68 58 52 48 39 48 52 39 42 23 32 35 29 26 23 23 23 16 19 16 16
10 6 13 16 3 10 10 6 3 3 0 0 3 6 10 13 19 16 16 45 58 71 61 55 58 48 42 39 42 39 32 29 35 32 35 35 32 26 19 19 16 13 13
10 3 3 6 3 6 10 6 6 3 0 0 0 3 3 10 19 13 6 19 52 58 71 68 68 48 42 42 39 39 35 39 39 35 35 29 29 23 32 23 13 13 10
6 6 6 6 6 6 6 3 3 3 3 3 0 0 3 0 3 6 13 6 16 35 58 65 65 65 61 52 45 42 42 35 45 39 35 32 23 26 19 26 16 16 6
10 6 6 6 6 6 3 3 3 3 3 3 3 0 3 3 3 6 3 3 6 10 19 45 61 65 55 55 48 42 45 42 45 45 42 29 26 19 19 19 19 10 3
10 6 10 6 6 6 3 3 3 3 3 3 3 3 3 3 3 3 0 0 0 0 3 10 35 48 48 48 52 45 35 32 45 35 35 19 23 23 16 16 13 13 3
13 6 10 6 6 6 3 3 3 3 3 0 0 0 0 0 0 3 0 0 0 0 0 0 3 10 23 39 45 42 42 52 42 39 39 32 29 29 23 16 10 6 0
10 10 6 6 6 6 3 3 3 3 3 0 0 0 0 0 0 0 0 0 0 0 0 0 0 0 6 3 10 23 39 42 39 45 39 45 42 32 19 13 10 3 3
10 10 10 10 6 3 3 3 3 3 3 0 0 0 0 0 0 0 0 0 0 0 0 3 3 0 0 3 3 6 19 32 35 35 39 42 32 16 19 16 13 6 6
6 6 6 6 6 0 0 0 0 0 0 0 0 0 0 0 0 0 0 0 0 0 0 0 0 6 6 6 0 0 0 16 26 29 35 35 35 19 13 10 13 10 6
6 6 6 3 3 0 0 0 0 0 0 0 0 0 0 0 0 0 0 0 0 0 0 0 0 3 3 6 6 0 0 6 13 23 23 32 26 16 16 16 10 6 3
6 3 3 3 3 3 0 0 0 0 0 0 0 0 0 0 0 0 0 0 0 0 0 0 0 0 0 3 3 0 0 0 0 3 10 10 16 16 19 13 13 6 6
3 6 6 3 3 0 0 0 0 0 0 0 0 0 0 0 0 0 0 0 0 0 0 0 0 0 0 0 3 0 3 0 0 0 0 3 3 6 10 13 10 10 6
6 0 3 0 0 3 0 0 0 0 0 0 0 0 0 0 0 0 0 0 0 0 0 0 0 0 0 0 0 0 0 0 0 0 0 0 0 0 0 3 3 3 3
6 6 6 3 3 3 0 0 0 0 0 0 0 0 0 0 0 0 0 0 0 0 0 0 0 0 0 0 0 0 0 0 0 0 0 0 0 0 0 0 0 0 0
6 6 6 6 6 6 0 0 0 0 0 0 0 0 0 0 0 0 0 0 0 0 0 0 0 0 0 0 0 0 0 0 0 0 0 0 0 0 0 0 0 0 0
10 6 10 10 6 6 3 3 3 0 3 0 0 0 0 0 0 0 0 0 0 0 0 0 0 0 0 0 0 0 0 0 0 0 0 0 0 0 0 0 0 0 0
10 10 10 3 3 0 0 3 3 3 3 3 0 0 0 0 0 0 0 0 0 0 0 0 0 0 0 0 0 0 0 0 0 0 0 0 0 0 0 0 0 0 0
13 6 3 3 3 3 6 3 3 3 3 3 0 0 0 0 0 0 0 0 0 0 0 0 0 0 0 0 0 0 0 0 0 0 0 0 0 0 0 0 0 0 0
6 6 6 3 6 6 6 6 3 0 0 0 0 0 0 0 0 0 0 0 0 0 0 0 0 0 0 0 0 0 0 0 0 0 0 0 0 0 0 0 0 0 0
6 3 3 3 3 3 0 0 0 0 3 0 0 0 0 0 0 0 0 0 0 0 0 0 0 0 0 0 0 0 0 0 0 0 0 0 0 0 0 0 0 0 0
6 6 6 3 0 0 0 0 0 0 0 0 0 0 0 0 0 0 0 0 0 0 0 0 0 0 0 0 0 0 0 0 0 0 0 0 0 0 0 0 0 0 0
3 3 0 0 0 0 0 0 0 0 0 0 0 0 0 0 0 0 0 0 0 0 0 0 0 0 0 0 0 0 0 0 0 0 0 0 0 0 0 0 0 0 0
0 0 0 0 0 0 0 0 0 0 0 0 0 0 0 0 0 0 0 0 0 0 0 0 0 0 0 0 0 0 0 0 0 0 0 0 0 0 0 0 0 0 0
0 0 0 0 0 0 0 0 0 0 0 0 0 0 0 0 0 0 0 0 0 0 0 0 0 0 0 0 0 0 0 0 0 0 0 0 0 0 0 0 0 0 0
0 0 0 0 0 0 0 0 0 0 0 0 0 0 0 0 0 0 0 0 0 0 0 0 0 0 0 0 0 0 0 0 0 0 0 0 0 0 0 0 0 0 0

GEFSMA_con_cape1000_168.txt.gz
Probability
77 65 71 68 52 74 84 77 61 58 48 52 45 35 39 29 29 23 39 55 58 74 61 48 42 48 52 42 35 32 32 39 39 32 29 19 16 19 19 13 19 16 16
65 65 81 81 61 71 68 77 52 71 55 52 42 35 35 23 35 39 42 52 61 65 65 58 48 45 52 39 35 39 35 39 39 39 32 26 29 26 16 16 19 10 13
68 68 65 65 58 71 77 77 74 61 58 52 45 39 39 35 39 42 39 58 55 52 52 52 55 52 45 52 42 39 35 42 42 35 32 29 32 23 23 19 19 13 13
71 84 65 52 68 52 58 71 68 55 55 48 58 42 48 55 35 42 39 45 48 45 45 55 48 55 52 48 45 35 35 45 45 39 32 29 19 19 19 19 19 16 10
61 71 68 71 65 52 39 42 58 58 61 65 45 58 35 42 52 45 45 45 55 55 55 61 58 61 52 52 52 45 39 48 32 29 29 29 19 19 19 19 19 19 16
58 55 65 74 55 55 65 61 81 77 74 71 23 39 45 45 52 45 42 39 48 52 52 52 55 55 55 55 48 45 35 45 35 29 29 23 23 19 16 19 16 16 13
68 81 55 77 77 61 61 42 65 68 55 61 58 45 42 35 42 55 52 45 35 35 39 48 52 52 58 35 29 48 42 45 48 42 42 32 26 19 16 16 13 10 10
68 52 71 71 74 90 77 74 84 74 42 42 45 52 42 32 61 23 45 48 29 32 32 32 52 65 55 58 35 32 35 39 45 42 39 35 26 19 13 13 10 3 3
68 81 84 77 90 77 81 90 84 87 77 68 52 45 32 32 26 13 39 32 45 52 42 42 39 58 61 55 58 19 39 42 42 39 42 35 35 16 16 13 10 6 3
77 81 84 90 94 84 94 74 61 81 81 71 65 71 61 42 39 19 29 19 29 39 35 16 23 45 55 61 52 19 23 26 29 39 39 35 35 19 13 13 13 13 10
87 77 87 84 90 84 84 77 81 84 74 74 65 58 48 61 29 45 26 13 13 13 26 32 26 26 45 55 58 45 10 6 13 23 32 29 26 29 26 16 16 16 10
87 77 81 87 84 77 81 71 71 74 71 68 55 48 45 42 45 52 45 48 42 16 26 26 23 23 26 32 32 13 16 6 0 0 6 19 23 26 29 23 19 23 19
77 81 58 65 65 74 71 65 68 65 65 65 58 55 52 45 45 42 48 35 29 23 39 26 26 26 13 23 29 3 10 0 0 0 0 0 3 6 13 13 13 13 16
71 65 65 65 61 58 39 61 55 58 61 61 35 61 55 39 39 42 39 42 29 23 19 23 26 23 13 19 10 0 13 0 0 0 0 0 0 0 0 0 6 6 6
61 68 68 61 58 52 48 48 52 55 48 48 45 52 42 42 26 35 32 39 29 19 16 19 19 13 13 16 3 6 23 0 0 0 0 0 0 0 0 0 0 0 0
68 58 58 48 52 42 45 52 52 58 52 58 61 48 52 39 35 42 39 35 45 35 13 13 13 6 13 3 0 13 16 0 0 0 0 0 0 0 0 0 0 0 0
65 61 61 58 48 45 45 48 42 45 42 45 42 35 42 39 35 32 23 29 29 42 32 19 23 19 19 16 16 19 13 13 10 0 0 0 0 0 0 0 0 0 0
71 68 68 55 45 45 45 48 45 35 42 45 35 35 32 29 26 26 26 23 29 32 26 19 19 13 10 13 10 10 3 0 6 0 0 0 0 0 0 0 0 0 0
68 58 61 48 45 39 39 42 35 35 42 32 35 39 35 32 29 26 26 23 19 13 19 23 6 13 6 6 3 6 6 6 0 0 0 0 0 0 0 0 0 0 0
61 61 48 45 35 35 35 32 32 35 35 26 26 26 26 26 23 16 13 16 16 16 13 16 10 3 3 3 3 3 3 3 3 0 0 0 0 0 0 0 0 0 0
52 55 55 35 29 13 13 23 26 16 29 23 23 26 19 10 6 6 6 13 13 10 10 10 6 10 3 3 0 3 3 3 3 3 3 0 0 0 0 0 0 0 0
55 55 48 39 16 3 3 3 6 13 19 19 19 19 13 6 0 0 0 0 0 3 3 10 3 6 6 3 3 3 3 3 3 3 3 3 0 0 0 0 0 0 0
52 48 42 35 26 6 0 0 0 10 19 16 19 16 10 0 0 3 3 0 0 0 0 3 10 10 3 3 3 6 6 6 6 6 3 3 3 6 3 0 0 0 0
42 45 35 32 23 6 0 0 0 6 13 13 13 13 16 10 3 3 3 3 3 3 3 3 3 6 3 3 6 6 6 6 3 3 3 3 6 6 0 3 0 0 0
45 45 42 26 26 13 0 0 0 10 13 13 6 6 6 6 0 0 0 0 0 3 0 0 0 0 0 0 0 0 0 0 0 0 3 0 0 3 0 0 0 0 0
45 39 35 35 26 16 0 0 0 6 6 10 6 6 0 0 0 0 0 0 0 0 0 0 0 0 0 0 0 0 0 0 0 0 3 3 0 0 0 0 3 0 0